When you browse on this site, cookies collect data to enhance your experience and personalize the content and advertising you see.
Visit our Privacy Policy to learn more. By continuing to use the site, you agree to this use of cookies and data.
  • In Österreich
  • Länderverzeichnis
  • Für 7 Tage
  • Wassertemperatur
  • Wetterkarte
  • News
  • Widgets
  • user-avatar
    Anmelden

    Stündliche Wetter Amstetten

    Heute, 31 Mai, Sonntag

    Zeit Temperatur Niederschläge Wind Luftdruck Luftfeuchtigkeit
    00:00 +6°C° 0 mm 2 m/S 711 mmHg 86%
    01:00 +6°C° 0 mm 2 m/S 711 mmHg 88%
    02:00 +6°C° 0 mm 1 m/S 711 mmHg 89%
    03:00 +6°C° 0 mm 1 m/S 711 mmHg 90%
    04:00 +5°C° 0 mm 1 m/S 710 mmHg 91%
    05:00 +7°C° 0 mm 1 m/S 711 mmHg 86%
    06:00 +8°C° 0 mm 1 m/S 711 mmHg 81%
    07:00 +9°C° 0 mm 2 m/S 711 mmHg 78%
    08:00 +10°C° 0 mm 2 m/S 711 mmHg 72%
    09:00 +12°C° 0 mm 3 m/S 711 mmHg 66%
    10:00 +13°C° 0 mm 3 m/S 711 mmHg 60%
    11:00 +14°C° 0 mm 4 m/S 711 mmHg 59%
    12:00 +14°C° 0 mm 4 m/S 711 mmHg 58%
    13:00 +15°C° 0 mm 4 m/S 711 mmHg 57%
    14:00 +15°C° 0 mm 4 m/S 711 mmHg 58%
    15:00 +15°C° 0 mm 4 m/S 711 mmHg 59%
    16:00 +15°C° 0 mm 4 m/S 711 mmHg 60%
    17:00 +14°C° 0 mm 3 m/S 712 mmHg 66%
    18:00 +14°C° 0 mm 3 m/S 712 mmHg 71%
    19:00 +14°C° 0 mm 2 m/S 712 mmHg 76%
    20:00 +11°C° 0 mm 3 m/S 712 mmHg 81%
    21:00 +10°C° 0 mm 3 m/S 712 mmHg 85%
    22:00 +8°C° 0 mm 3 m/S 712 mmHg 90%
    23:00 +7°C° 0 mm 3 m/S 712 mmHg 91%

    Morgen, 1 Juni, Montag

    Zeit Temperatur Niederschläge Wind Luftdruck Luftfeuchtigkeit
    00:00 +7°C° 0 mm 3 m/S 712 mmHg 92%
    01:00 +5°C° 0 mm 3 m/S 712 mmHg 94%
    02:00 +5°C° 0 mm 3 m/S 712 mmHg 94%
    03:00 +5°C° 0 mm 3 m/S 711 mmHg 95%
    04:00 +4°C° 0 mm 3 m/S 711 mmHg 95%
    05:00 +7°C° 0 mm 3 m/S 711 mmHg 91%
    06:00 +9°C° 0 mm 3 m/S 711 mmHg 88%
    07:00 +10°C° 0 mm 4 m/S 712 mmHg 84%
    08:00 +12°C° 0 mm 4 m/S 712 mmHg 80%
    09:00 +14°C° 0 mm 4 m/S 712 mmHg 75%
    10:00 +16°C° 0 mm 5 m/S 712 mmHg 71%
    11:00 +17°C° 0 mm 5 m/S 712 mmHg 68%
    12:00 +19°C° 0 mm 5 m/S 712 mmHg 65%
    13:00 +19°C° 0 mm 5 m/S 712 mmHg 62%
    14:00 +20°C° 0 mm 5 m/S 712 mmHg 62%
    15:00 +20°C° 0 mm 5 m/S 712 mmHg 62%
    16:00 +20°C° 0 mm 5 m/S 711 mmHg 62%
    17:00 +19°C° 0 mm 4 m/S 711 mmHg 68%
    18:00 +18°C° 0 mm 3 m/S 711 mmHg 73%
    19:00 +17°C° 0 mm 3 m/S 711 mmHg 78%
    20:00 +14°C° 0 mm 3 m/S 711 mmHg 81%
    21:00 +13°C° 0 mm 3 m/S 711 mmHg 85%
    22:00 +11°C° 0 mm 3 m/S 711 mmHg 88%
    23:00 +10°C° 0 mm 3 m/S 711 mmHg 88%

    übermorgen, 2 Juni, Dienstag

    Zeit Temperatur Niederschläge Wind Luftdruck Luftfeuchtigkeit
    00:00 +10°C° 0 mm 3 m/S 711 mmHg 88%
    01:00 +9°C° 0 mm 3 m/S 711 mmHg 88%
    02:00 +8°C° 0 mm 3 m/S 710 mmHg 90%
    03:00 +8°C° 0 mm 2 m/S 710 mmHg 92%
    04:00 +8°C° 0 mm 2 m/S 710 mmHg 94%
    05:00 +9°C° 0 mm 2 m/S 710 mmHg 90%
    06:00 +10°C° 0 mm 3 m/S 710 mmHg 86%
    07:00 +11°C° 0 mm 3 m/S 711 mmHg 82%
    08:00 +13°C° 0 mm 3 m/S 711 mmHg 77%
    09:00 +15°C° 0 mm 4 m/S 711 mmHg 72%
    10:00 +17°C° 0 mm 4 m/S 711 mmHg 66%
    11:00 +18°C° 0 mm 4 m/S 710 mmHg 64%
    12:00 +19°C° 0 mm 4 m/S 710 mmHg 62%
    13:00 +20°C° 0 mm 4 m/S 710 mmHg 60%
    14:00 +20°C° 0 mm 4 m/S 709 mmHg 60%
    15:00 +20°C° 0 mm 4 m/S 709 mmHg 60%
    16:00 +20°C° 0 mm 4 m/S 708 mmHg 59%
    17:00 +19°C° 0 mm 3 m/S 708 mmHg 65%
    18:00 +18°C° 0 mm 3 m/S 708 mmHg 70%
    19:00 +17°C° 0 mm 2 m/S 707 mmHg 75%
    20:00 +15°C° 0 mm 2 m/S 707 mmHg 78%
    21:00 +14°C° 0 mm 2 m/S 707 mmHg 81%
    22:00 +12°C° 0 mm 2 m/S 707 mmHg 83%
    23:00 +10°C° 0 mm 2 m/S 707 mmHg 85%

    3 Juni, Mittwoch

    Zeit Temperatur Niederschläge Wind Luftdruck Luftfeuchtigkeit
    00:00 +9°C° 0 mm 2 m/S 706 mmHg 87%
    01:00 +9°C° 0 mm 2 m/S 706 mmHg 89%
    02:00 +9°C° 0 mm 1 m/S 706 mmHg 90%
    03:00 +9°C° 0 mm 1 m/S 705 mmHg 91%
    04:00 +9°C° 0 mm 1 m/S 705 mmHg 92%
    05:00 +10°C° 0 mm 1 m/S 705 mmHg 88%
    06:00 +12°C° 0 mm 1 m/S 705 mmHg 84%
    07:00 +13°C° 0 mm 1 m/S 705 mmHg 80%
    08:00 +15°C° 0 mm 2 m/S 705 mmHg 74%
    09:00 +16°C° 0 mm 2 m/S 705 mmHg 69%
    10:00 +18°C° 0 mm 2 m/S 705 mmHg 64%
    11:00 +19°C° 0 mm 2 m/S 704 mmHg 61%
    12:00 +20°C° 0 mm 2 m/S 704 mmHg 57%
    13:00 +21°C° 0 mm 2 m/S 704 mmHg 54%
    14:00 +21°C° 0 mm 2 m/S 703 mmHg 54%
    15:00 +21°C° 0 mm 2 m/S 703 mmHg 55%
    16:00 +21°C° 0 mm 2 m/S 703 mmHg 55%
    17:00 +20°C° 0 mm 2 m/S 702 mmHg 62%
    18:00 +19°C° 0 mm 2 m/S 702 mmHg 69%
    19:00 +18°C° 0 mm 2 m/S 702 mmHg 76%
    20:00 +16°C° 0 mm 2 m/S 702 mmHg 79%
    21:00 +15°C° 0 mm 1 m/S 702 mmHg 82%
    22:00 +13°C° 0 mm 1 m/S 702 mmHg 84%
    23:00 +13°C° 0 mm 1 m/S 701 mmHg 84%

    4 Juni, Donnerstag

    Zeit Temperatur Niederschläge Wind Luftdruck Luftfeuchtigkeit
    00:00 +13°C° 0 mm 1 m/S 701 mmHg 84%
    01:00 +13°C° 0 mm 1 m/S 701 mmHg 84%
    02:00 +13°C° 0.1 mm 2 m/S 701 mmHg 84%
    03:00 +14°C° 0.1 mm 2 m/S 701 mmHg 83%
    04:00 +13°C° 0.1 mm 3 m/S 701 mmHg 83%
    05:00 +13°C° 0.5 mm 3 m/S 701 mmHg 87%
    06:00 +13°C° 0.5 mm 3 m/S 700 mmHg 90%
    07:00 +13°C° 0.5 mm 3 m/S 700 mmHg 94%
    08:00 +15°C° 0.5 mm 4 m/S 700 mmHg 90%
    09:00 +16°C° 0.5 mm 5 m/S 700 mmHg 87%
    10:00 +17°C° 0.5 mm 6 m/S 700 mmHg 83%
    11:00 +17°C° 0.6 mm 6 m/S 700 mmHg 82%
    12:00 +17°C° 0.6 mm 7 m/S 700 mmHg 81%
    13:00 +17°C° 0.6 mm 7 m/S 700 mmHg 79%
    14:00 +17°C° 0.6 mm 7 m/S 700 mmHg 82%
    15:00 +16°C° 0.6 mm 7 m/S 701 mmHg 84%
    16:00 +15°C° 0.6 mm 6 m/S 701 mmHg 86%
    17:00 +14°C° 1.1 mm 6 m/S 701 mmHg 89%
    18:00 +14°C° 1.1 mm 5 m/S 701 mmHg 91%
    19:00 +13°C° 1.1 mm 4 m/S 701 mmHg 94%
    20:00 +13°C° 0.5 mm 4 m/S 702 mmHg 94%
    21:00 +13°C° 0.5 mm 4 m/S 702 mmHg 95%
    22:00 +13°C° 0.5 mm 3 m/S 702 mmHg 95%
    23:00 +12°C° 0.1 mm 3 m/S 702 mmHg 96%

    5 Juni, Freitag

    Zeit Temperatur Niederschläge Wind Luftdruck Luftfeuchtigkeit
    00:00 +13°C° 0.1 mm 2 m/S 702 mmHg 96%
    01:00 +13°C° 0.1 mm 2 m/S 702 mmHg 97%
    02:00 +13°C° 0 mm 2 m/S 702 mmHg 97%
    03:00 +12°C° 0 mm 1 m/S 702 mmHg 97%
    04:00 +12°C° 0 mm 1 m/S 702 mmHg 97%
    05:00 +13°C° 0 mm 1 m/S 702 mmHg 96%
    06:00 +13°C° 0 mm 1 m/S 703 mmHg 95%
    07:00 +14°C° 0 mm 1 m/S 703 mmHg 94%
    08:00 +15°C° 0.1 mm 1 m/S 703 mmHg 89%
    09:00 +18°C° 0.1 mm 1 m/S 703 mmHg 84%
    10:00 +19°C° 0.1 mm 1 m/S 704 mmHg 78%
    11:00 +20°C° 0.3 mm 1 m/S 703 mmHg 75%
    12:00 +20°C° 0.3 mm 2 m/S 703 mmHg 71%
    13:00 +21°C° 0.3 mm 2 m/S 703 mmHg 68%
    14:00 +22°C° 0.3 mm 1 m/S 703 mmHg 67%
    15:00 +22°C° 0.3 mm 1 m/S 702 mmHg 67%
    16:00 +23°C° 0.3 mm 1 m/S 702 mmHg 67%
    17:00 +22°C° 0.1 mm 1 m/S 702 mmHg 71%
    18:00 +21°C° 0.1 mm 1 m/S 702 mmHg 76%
    19:00 +21°C° 0.1 mm 1 m/S 702 mmHg 80%
    20:00 +19°C° 0.4 mm 1 m/S 702 mmHg 84%
    21:00 +18°C° 0.4 mm 1 m/S 702 mmHg 87%
    22:00 +16°C° 0.4 mm 1 m/S 702 mmHg 91%
    23:00 +15°C° 0.5 mm 2 m/S 702 mmHg 92%
    Mehr zeigen